Location: Unspecified
(0.0000°N, 0.0000°E)
Time: 12:05:28
(UTC+00:00)

Amateur Radio Satellites - All Passes

Search period start: 27 June 2017 11:35
Search period end: 28 June 2017 11:35
Location: Unspecified, 0.0000°N, 0.0000°E

Satellite Date Start Highest point End Downlink Frequencies (MHz)
Time Altitude Azimuth
VELOX 1 27 Jun 11:45:45 11:49:56 42° 102° (ESE) 11:54:10 145.980
ESTCUBE 1 27 Jun 11:52:39 11:56:11 23° 282° (WNW) 11:59:43 437.505/2401.250
SPROUT 27 Jun 11:53:12 11:57:26 62° 102° (ESE) 12:01:40 437.525
EO-79 27 Jun 11:53:45 11:57:43 40° 258° (WSW) 12:01:41 145.935-145.965
DX 1 27 Jun 12:01:05 12:03:44 16° 103° (ESE) 12:06:22 434.975-435.025
DUCHIFAT 1 27 Jun 12:05:40 12:09:31 35° 258° (WSW) 12:13:22 145.980
SO-50 27 Jun 12:10:10 12:14:38 46° 292° (WNW) 12:19:01 436.795
50 SAT 27 Jun 12:11:59 12:15:08 34° 102° (ESE) 12:18:17 437.505
UKube-1 27 Jun 12:14:46 12:17:07 14° 103° (ESE) 12:19:28 .
NANOSAT C BR1 27 Jun 12:15:44 12:19:02 23° 258° (WSW) 12:22:21 145.865
Gurwin Techsat 1B 27 Jun 12:35:43 12:39:05 17° 77° (ENE) 12:42:27 435.225
SRMSAT 27 Jun 12:37:18 12:42:12 26° 343° (NNW) 12:47:05 437.500
JUGNU 27 Jun 12:43:49 12:44:36 10° 356° (N) 12:45:23 437.505
Oscar 19 27 Jun 13:05:13 13:10:25 77° 78° (ENE) 13:15:34 437.125/150
BUGSAT 1 27 Jun 13:09:05 13:12:08 21° 258° (WSW) 13:15:12 437.445
DX 1 27 Jun 13:36:16 13:39:37 22° 282° (WNW) 13:42:59 434.975-435.025
UKube-1 27 Jun 13:49:27 13:52:51 23° 282° (WNW) 13:56:17 .
ITUPSAT 1 27 Jun 14:13:27 14:17:38 31° 103° (ESE) 14:21:49 437.325
Gurwin Techsat 1B 27 Jun 14:14:09 14:18:45 30° 257° (WSW) 14:23:21 435.225
AO-7 27 Jun 14:15:22 14:22:16 29° 73° (ENE) 14:29:08 .
BEESAT 27 Jun 14:21:52 14:26:20 42° 103° (ESE) 14:30:48 436.000
SRMSAT 27 Jun 14:29:32 14:32:05 13° 350° (N) 14:34:39 437.500
JUGNU 27 Jun 14:33:08 14:34:50 11° 7° (N) 14:36:32 437.505
MOZHAYETS 4 27 Jun 15:12:52 15:17:22 68° 282° (WNW) 15:21:53
ITAMSAT 1 27 Jun 15:26:04 15:31:08 56° 258° (WSW) 15:36:12 435.822/435.867
Tancredo 1 27 Jun 15:30:46 15:33:15 23° 55° (NE) 15:35:43 437.200
ITUPSAT 1 27 Jun 15:53:01 15:55:11 13° 283° (WNW) 15:57:21 437.325
CUBESAT XI-V 27 Jun 15:58:58 16:03:28 56° 102° (ESE) 16:08:01 437.345
AO-7 27 Jun 16:07:14 16:14:40 37° 254° (WSW) 16:22:07 .
ISS 27 Jun 16:12:40 16:15:41 34° 55° (NE) 16:18:43 437.550
JUGNU 27 Jun 16:20:22 16:24:43 20° 16° (NNE) 16:29:04 437.505
KKS-1 27 Jun 16:32:12 16:36:39 82° 284° (WNW) 16:41:09 437.445
CUTE-I 27 Jun 16:48:42 16:48:49 10° 77° (ENE) 16:48:57 437.470
STARS 27 Jun 16:56:19 17:00:43 70° 103° (ESE) 17:05:07 437.465
RS-15 27 Jun 17:16:18 17:24:53 24° 111° (ESE) 17:33:38 29.354- 29.394
XW-2F 27 Jun 17:20:28 17:23:48 28° 79° (E) 17:27:05 145.980 - 146.000
XW-2D 27 Jun 17:25:39 17:29:14 38° 79° (E) 17:32:49 145.860 - 145.880
DOVE 4 27 Jun 17:33:26 17:37:32 54° 258° (WSW) 17:41:34 437.250
XW-2B 27 Jun 17:34:33 17:38:18 51° 79° (E) 17:42:01 145.730 - 145.750
LilacSat-2 27 Jun 17:36:12 17:40:03 61° 78° (ENE) 17:43:51 437.200
NO-84 27 Jun 17:38:48 17:41:30 25° 121° (ESE) 17:44:22 435.350 FM
AO-85 27 Jun 17:45:19 17:49:51 58° 113° (ESE) 17:54:02 145.980
XW-2C 27 Jun 17:50:01 17:53:52 84° 259° (WSW) 17:57:43 145.795 - 145.815
KAITUO 1B 27 Jun 17:59:02 18:02:51 85° 259° (W) 18:06:39 145.475/437.950
HO-68 27 Jun 18:00:09 18:05:20 22° 75° (ENE) 18:10:29 435.675
JUGNU 27 Jun 18:08:18 18:14:05 49° 21° (NNE) 18:19:49 437.505
BEESAT 3 27 Jun 18:09:16 18:13:04 57° 111° (ESE) 18:16:54 437.485
SRMSAT 27 Jun 18:09:39 18:12:43 14° 11° (NNE) 18:15:45 437.500
CUTE-I 27 Jun 18:23:27 18:28:33 48° 257° (WSW) 18:33:40 437.470
NUDT-PHONESAT 27 Jun 18:32:24 18:35:29 24° 259° (WSW) 18:38:34 437.300
O/OREOS (USA 219) 27 Jun 18:42:28 18:45:24 17° 105° (ESE) 18:48:19 437.305
SEEDS 27 Jun 18:48:17 18:51:59 29° 79° (ENE) 18:55:39 437.485
XW-2A 27 Jun 18:49:15 18:52:22 34° 79° (E) 18:55:30 145.665 - 145.685
STRAND 1 27 Jun 18:59:52 19:04:58 74° 102° (ESE) 19:10:04 437.568
CUTE 1.7 + AOD 2 27 Jun 19:09:13 19:13:30 70° 259° (W) 19:17:43 437.475
BEESAT 2 27 Jun 19:13:00 19:16:51 64° 292° (WNW) 19:20:44 435.950
RS-15 27 Jun 19:25:27 19:36:50 61° 291° (WNW) 19:48:47 29.354- 29.394
AO-73 27 Jun 19:26:41 19:29:31 17° 78° (ENE) 19:32:21 145.935
AAUSAT CUBESAT 2 27 Jun 19:32:30 19:36:32 49° 79° (ENE) 19:40:31 437.432
CUBEBUG 2 27 Jun 19:42:19 19:46:38 59° 259° (W) 19:51:05 437.445
YUBILEINY 27 Jun 19:43:55 19:50:14 22° 93° (E) 19:56:32 435.215
HO-68 27 Jun 19:46:03 19:52:42 41° 255° (WSW) 19:59:22 435.675
Oscar 11 27 Jun 19:50:38 19:54:13 25° 78° (ENE) 19:57:47 .
JUGNU 27 Jun 19:57:16 20:03:08 61° 201° (SSW) 20:09:00 437.505
SRMSAT 27 Jun 19:57:20 20:02:28 30° 19° (NNE) 20:07:35 437.500
ZACube-1 27 Jun 20:01:24 20:05:47 60° 78° (ENE) 20:10:15 437.345
UWE-3 27 Jun 20:11:32 20:15:46 44° 259° (W) 20:20:05 435.000/436.395/437.385
FO-29 27 Jun 20:19:43 20:24:44 19° 101° (ESE) 20:29:28 435.910
O/OREOS (USA 219) 27 Jun 20:21:04 20:24:32 21° 284° (WNW) 20:27:58 437.305
SEEDS 27 Jun 20:26:58 20:27:22 10° 258° (WSW) 20:27:47 437.485
DELFI C3 27 Jun 20:40:16 20:43:15 21° 79° (ENE) 20:46:14 145.870
TIGRISAT 27 Jun 20:47:48 20:50:03 14° 102° (ESE) 20:52:16 435.000
M-CUBED/EXP-1 PRIME 27 Jun 21:01:36 21:05:48 59° 106° (ESE) 21:10:17 437.505
AO-73 27 Jun 21:02:02 21:05:27 22° 259° (WSW) 21:08:55 145.935
EO-88 27 Jun 21:06:02 21:09:16 29° 79° (E) 21:12:29 145.990 - 145.960
Oscar 11 27 Jun 21:27:59 21:30:04 13° 258° (WSW) 21:32:09 .
UNISAT 6 27 Jun 21:28:23 21:32:48 61° 101° (ESE) 21:37:08 437.425
PRISM 27 Jun 21:33:23 21:37:31 76° 102° (ESE) 21:41:40 437.425
YUBILEINY 27 Jun 21:38:24 21:46:37 46° 273° (W) 21:54:53 435.215
PCSat 27 Jun 21:45:06 21:50:30 88° 252° (WSW) 21:55:54 145.827
SRMSAT 27 Jun 21:45:50 21:51:46 81° 22° (NNE) 21:57:41 437.500
JUGNU 27 Jun 21:47:42 21:52:22 24° 197° (SSW) 21:57:02 437.505
FO-29 27 Jun 22:02:14 22:09:32 48° 284° (WNW) 22:16:15 435.910
DELFI C3 27 Jun 22:16:05 22:17:45 12° 258° (WSW) 22:19:24 145.870
TIGRISAT 27 Jun 22:22:48 22:26:28 25° 282° (WNW) 22:30:05 435.000
ESTCUBE 1 27 Jun 22:30:06 22:33:45 24° 78° (ENE) 22:37:22 437.505/2401.250
AIST 2D 27 Jun 22:33:07 22:36:10 29° 101° (E) 22:39:13 435.315
SO-50 27 Jun 22:44:04 22:46:49 16° 68° (ENE) 22:49:35 436.795
NANOSAT C BR1 27 Jun 22:46:31 22:49:11 16° 102° (ESE) 22:51:50 145.865
LO-87 27 Jun 22:54:16 22:57:46 61° 260° (W) 23:01:14 145.935 - 145.965
POLYITAN 1 27 Jun 23:24:53 23:29:06 73° 102° (ESE) 23:33:18 437.675
SRMSAT 27 Jun 23:35:34 23:41:00 37° 200° (SSW) 23:46:26 437.500
QB50P2 27 Jun 23:35:51 23:40:03 67° 283° (WNW) 23:44:15 145.880/145.840
BUGSAT 1 27 Jun 23:37:32 23:40:03 16° 102° (ESE) 23:42:35 437.445
JUGNU 27 Jun 23:39:58 23:42:07 12° 189° (S) 23:44:17 437.505
50 SAT 27 Jun 23:56:01 23:58:21 18° 79° (ENE) 00:00:39 437.505
VELOX 1 27 Jun 23:57:08 00:01:28 62° 78° (ENE) 00:05:46 145.980
EO-79 27 Jun 23:59:53 00:03:41 33° 282° (WNW) 00:07:29 145.935-145.965
SPROUT 28 Jun 00:00:12 00:04:28 80° 77° (ENE) 00:08:42 437.525
Oscar 19 28 Jun 00:03:16 00:04:56 11° 103° (ESE) 00:06:36 437.125/150
ESTCUBE 1 28 Jun 00:07:41 00:10:16 15° 258° (WSW) 00:12:50 437.505/2401.250
DX 1 28 Jun 00:10:04 00:13:19 21° 78° (ENE) 00:16:33 434.975-435.025
DUCHIFAT 1 28 Jun 00:11:06 00:14:46 30° 282° (WNW) 00:18:27 145.980
NANOSAT C BR1 28 Jun 00:21:38 00:24:37 19° 282° (WNW) 00:27:36 145.865
UKube-1 28 Jun 00:22:30 00:25:30 19° 78° (ENE) 00:28:29 .
SO-50 28 Jun 00:23:14 00:27:01 25° 248° (WSW) 00:30:51 436.795
BUGSAT 1 28 Jun 01:12:09 01:15:09 19° 282° (WNW) 01:18:08 437.445
Gurwin Techsat 1B 28 Jun 01:12:22 01:17:29 49° 103° (ESE) 01:22:36 435.225
SRMSAT 28 Jun 01:27:00 01:30:37 16° 193° (SSW) 01:34:16 437.500
Oscar 19 28 Jun 01:39:09 01:43:56 41° 282° (WNW) 01:48:45 437.125/150
DX 1 28 Jun 01:46:37 01:49:13 16° 257° (WSW) 01:51:50 434.975-435.025
UKube-1 28 Jun 01:58:23 02:01:15 18° 257° (WSW) 02:04:07 .
ITAMSAT 1 28 Jun 02:22:45 02:26:53 24° 103° (ESE) 02:31:00 435.822/435.867
ITUPSAT 1 28 Jun 02:35:08 02:39:53 62° 78° (ENE) 02:44:37 437.325
AO-7 28 Jun 02:40:41 02:48:37 48° 106° (ESE) 02:56:32 .
BEESAT 28 Jun 02:43:23 02:48:10 83° 78° (ENE) 02:52:57 436.000
Tancredo 1 28 Jun 02:59:34 03:00:35 11° 126° (SE) 03:01:35 437.200
JUGNU 28 Jun 03:19:15 03:22:22 14° 168° (SSE) 03:25:29 437.505
SRMSAT 28 Jun 03:20:35 03:20:48 10° 184° (S) 03:21:01 437.500
MOZHAYETS 4 28 Jun 03:29:43 03:34:02 39° 258° (WSW) 03:38:22
ISS 28 Jun 03:47:07 03:49:39 21° 126° (SE) 03:52:11 437.550
ITAMSAT 1 28 Jun 04:02:13 04:06:04 21° 283° (WNW) 04:09:54 435.822/435.867
CUBESAT XI-V 28 Jun 04:17:08 04:21:50 80° 258° (WSW) 04:26:29 437.345
DOVE 4 28 Jun 04:17:23 04:20:25 15° 102° (ESE) 04:23:27 437.250
Tancredo 1 28 Jun 04:33:55 04:35:56 17° 306° (NW) 04:37:57 437.200
AO-7 28 Jun 04:34:56 04:40:59 23° 287° (WNW) 04:47:05 .
KKS-1 28 Jun 04:44:47 04:49:05 53° 258° (WSW) 04:53:23 437.445
RS-15 28 Jun 05:00:33 05:07:47 19° 66° (ENE) 05:14:46 29.354- 29.394
JUGNU 28 Jun 05:06:45 05:11:54 32° 161° (SSE) 05:17:04 437.505
STARS 28 Jun 05:07:05 05:11:28 81° 260° (W) 05:15:48 437.465
SRMSAT 28 Jun 05:09:21 05:11:11 11° 173° (S) 05:13:01 437.500
XW-2F 28 Jun 05:14:01 05:16:53 21° 101° (ESE) 05:19:45 145.980 - 146.000
XW-2D 28 Jun 05:19:29 05:22:44 29° 101° (ESE) 05:26:00 145.860 - 145.880
NO-84 28 Jun 05:22:34 05:26:04 27° 57° (ENE) 05:29:21 435.350 FM
CUTE-I 28 Jun 05:23:20 05:28:03 32° 103° (ESE) 05:32:46 437.470
ISS 28 Jun 05:24:53 05:25:56 11° 306° (NW) 05:26:58 437.550
XW-2B 28 Jun 05:28:19 05:31:48 38° 101° (E) 05:35:18 145.730 - 145.750
LilacSat-2 28 Jun 05:30:38 05:34:14 47° 101° (ESE) 05:37:52 437.200
XW-2C 28 Jun 05:43:42 05:47:25 75° 102° (ESE) 05:51:09 145.795 - 145.815
KAITUO 1B 28 Jun 05:51:18 05:54:57 69° 101° (E) 05:58:37 145.475/437.950
HO-68 28 Jun 05:52:27 05:56:52 17° 105° (ESE) 06:01:17 435.675
DOVE 4 28 Jun 05:53:02 05:57:45 34° 282° (WNW) 06:02:32 437.250
AO-85 28 Jun 05:56:41 06:01:18 76° 249° (WSW) 06:06:16 145.980
STRAND 1 28 Jun 05:57:34 05:58:40 11° 77° (ENE) 05:59:45 437.568
BEESAT 3 28 Jun 06:01:00 06:04:49 57° 68° (ENE) 06:08:35 437.485
NUDT-PHONESAT 28 Jun 06:23:31 06:26:47 32° 281° (W) 06:30:05 437.300
XW-2A 28 Jun 06:32:41 06:34:54 17° 101° (ESE) 06:37:07 145.665 - 145.685
UWE-3 28 Jun 06:50:02 06:50:53 10° 101° (E) 06:51:43 435.000/436.395/437.385
XW-2F 28 Jun 06:50:16 06:50:45 10° 281° (WNW) 06:51:13 145.980 - 146.000
O/OREOS (USA 219) 28 Jun 06:52:30 06:56:17 27° 76° (ENE) 07:00:06 437.305
SEEDS 28 Jun 06:53:09 06:56:57 34° 102° (ESE) 07:00:46 437.485
JUGNU 28 Jun 06:55:07 07:01:00 86° 158° (SSE) 07:06:55 437.505
SRMSAT 28 Jun 06:56:45 07:01:12 21° 164° (SSE) 07:05:40 437.500
NO-84 28 Jun 07:01:37 07:03:19 12° 239° (WSW) 07:04:58 435.350 FM
CUTE-I 28 Jun 07:04:28 07:07:49 17° 283° (WNW) 07:11:09 437.470
BEESAT 2 28 Jun 07:05:59 07:09:53 61° 248° (WSW) 07:13:46 435.950
RS-15 28 Jun 07:08:36 07:20:00 70° 250° (WSW) 07:30:55 29.354- 29.394
CUTE 1.7 + AOD 2 28 Jun 07:15:29 07:19:34 55° 282° (WNW) 07:23:43 437.475
STRAND 1 28 Jun 07:32:43 07:37:33 43° 257° (WSW) 07:42:23 437.568
AAUSAT CUBESAT 2 28 Jun 07:35:43 07:39:44 55° 101° (ESE) 07:43:48 437.432
AO-73 28 Jun 07:35:51 07:39:00 20° 101° (ESE) 07:42:06 145.935
HO-68 28 Jun 07:37:25 07:44:14 49° 284° (WNW) 07:51:05 435.675
CUBEBUG 2 28 Jun 07:55:08 07:59:18 38° 282° (WNW) 08:03:21 437.445
Oscar 11 28 Jun 07:58:56 08:02:46 32° 102° (ESE) 08:06:37 .
ZACube-1 28 Jun 08:11:26 08:15:41 84° 98° (E) 08:19:54 437.345
YUBILEINY 28 Jun 08:15:34 08:23:47 45° 87° (E) 08:31:56 435.215
UWE-3 28 Jun 08:23:18 08:27:05 29° 282° (WNW) 08:30:49 435.000/436.395/437.385
O/OREOS (USA 219) 28 Jun 08:33:42 08:35:25 12° 255° (WSW) 08:37:09 437.305
DELFI C3 28 Jun 08:38:21 08:41:16 20° 102° (ESE) 08:44:12 145.870
PCSat 28 Jun 08:39:45 08:43:32 19° 110° (ESE) 08:47:17 145.827
JUGNU 28 Jun 08:44:46 08:50:05 35° 341° (NNW) 08:55:26 437.505
SRMSAT 28 Jun 08:44:51 08:50:41 52° 159° (SSE) 08:56:31 437.500
EO-88 28 Jun 08:56:13 08:58:55 20° 101° (ESE) 09:01:38 145.990 - 145.960
TIGRISAT 28 Jun 08:59:24 09:02:47 21° 78° (ENE) 09:06:13 435.000
M-CUBED/EXP-1 PRIME 28 Jun 09:02:07 09:05:36 49° 75° (ENE) 09:08:52 437.505
AO-73 28 Jun 09:12:35 09:14:58 15° 282° (WNW) 09:17:20 145.935
FO-29 28 Jun 09:35:00 09:40:26 85° 258° (WSW) 09:46:26 435.910
PRISM 28 Jun 09:36:04 09:40:09 83° 78° (ENE) 09:44:11 437.425
UNISAT 6 28 Jun 09:41:12 09:45:41 87° 258° (WSW) 09:50:15 437.425
DELFI C3 28 Jun 10:13:48 10:15:46 13° 281° (W) 10:17:45 145.870
YUBILEINY 28 Jun 10:13:48 10:20:09 23° 267° (W) 10:26:33 435.215
AIST 2D 28 Jun 10:19:40 10:22:09 18° 79° (E) 10:24:38 435.315
PCSat 28 Jun 10:22:06 10:26:38 28° 289° (WNW) 10:31:12 145.827
EO-88 28 Jun 10:31:50 10:32:20 10° 281° (WNW) 10:32:48 145.990 - 145.960
EO-79 28 Jun 10:32:51 10:34:10 11° 78° (ENE) 10:35:29 145.935-145.965
SRMSAT 28 Jun 10:34:01 10:39:55 57° 339° (NNW) 10:45:49 437.500
JUGNU 28 Jun 10:36:08 10:39:36 16° 347° (NNW) 10:43:05 437.505
TIGRISAT 28 Jun 10:36:16 10:39:12 17° 258° (WSW) 10:42:11 435.000
LO-87 28 Jun 10:41:57 10:45:34 78° 101° (E) 10:49:12 145.935 - 145.965
DUCHIFAT 1 28 Jun 10:43:00 10:44:39 12° 78° (ENE) 10:46:17 145.980
ESTCUBE 1 28 Jun 10:43:29 10:47:37 37° 102° (ESE) 10:51:47 437.505/2401.250
NANOSAT C BR1 28 Jun 10:51:41 10:54:46 20° 78° (ENE) 10:57:49 145.865
SO-50 28 Jun 10:55:38 10:59:39 29° 112° (ESE) 11:03:36 436.795
